1st Responders/1st Detectors/Storm Spotters Weather Summary for Clark County, KY

Forecast Maps


Reg. NEXRAD Animation


National Fire Danger: Day 1 & 2 Map

Current NWS Watch/Warnings

SPC Convective Day 1 Outlook


Day 2 Outlook

(Click images to enlarge|Page will refresh every 5 minutes)
UK Ag. Weather Center Desktop Severe Weather Service[HERE]
Clark County, KY Hazardous Weather Outlook Webcast
(9 AM to 9 PM Mon-Fri)
[Fast]
[Dial-up]


UKAWC 1st Detectors/1st Responders Precision Weather Forecast For CLARK County, Kentucky
(based on the NWS County Digital Forecast)

ISSUED AT 18:00 UTC ON TUESDAY OCT 23 2018
DAY TUESDAY
EDT 3HR 3P 4P 5P 6P 7P
MAX/MIN -- -- -- -- 61°
TEMP 61° 61° 61° 58° 54°
SKY COVER 1% 1% 1% 1% 1%
Clouds
DEW PT 41° 41° 41° 41° 40°
RH 47% 47% 49% 54% 61%
POP 12HR -- -- -- -- --
RAIN/SNOW (liq.equ) -- -- -- -- --
SNOWFALL -- -- -- -- --
WIND SPEED(MPH) 8 8 8 7 7
WIND Gust(MPH) 13 13 13 10 8
WIND DIR W NW NW NW NW
DEW -- -- -- -- --
HeatIndex 61 61 61 58 54
Rain -- -- -- -- --
WIND CHILL -- -- -- -- --
SPRAY COND
DRY COND
LIVESTOCK COLDSTRESS
LIVESTOCK HEATSTRESS 60.36 60.36 60.38 58.20 55.03



DAY WEDNESDAY THURSDAY FRIDAY SATURDAY SUNDAY MONDAY
EDT 6HR 8P 9P 10P 11P MIDN 1A 2A 3A 4A 5A 6A 7A 8A 9A 10A 11A NOON 1P 2P 3P 4P 5P 6P 7P 8P 9P 10P 11P MIDN 1A 2A 5A 8A 11A 2P 5P 8P 2A 8A 2P 8P 2A 8A 2P 8P 2A 8A 2P 8P 2A 8A 2P 8P
MAX/MIN -- -- -- -- -- -- -- -- -- -- -- -- 32° -- -- -- -- -- -- -- -- -- -- 52° -- -- -- -- -- -- -- -- 34° -- -- 50° -- -- 40° 49° -- -- 40° 52° -- -- 40° 52° -- -- 40° 52° --
TEMP 49° 47° 43° 43° 40° 40° 38° 38° 36° 36° 34° 32° 34° 36° 40° 45° 47° 49° 52° 52° 52° 52° 49° 47° 43° 40° 38° 38° 36° 36° 36° 34° 34° 43° 49° 49° 45° 41° 40° 49° 47° 43° 41° 50° 49° 43° 41° 52° 47° 43° 41° 52° 47°
SKY COVER 3% 2% 2% 2% 2% 2% 2% 3% 6% 5% 5% 6% 6% 5% 5% 4% 3% 3% 2% 3% 3% 3% 4% 5% 6% 9% 15% 19% 19% 20% 21% 31% 44% 48% 68% 75% 82% 84% 91% 92% 90% 88% 83% 75% 82% 86% 86% 83% 87% 83% 78% 82% 71%
Clouds
DEW PT 40° 38° 36° 36° 36° 36° 34° 34° 34° 34° 34° 32° 32° 34° 34° 36° 36° 36° 34° 34° 34° 34° 34° 32° 32° 32° 31° 31° 31° 31° 31° 31° 31° 34° 34° 36° 36° 36° 38° 43° 41° 41° 40° 43° 43° 41° 40° 43° 43° 40° 40° 41° 40°
RH 67% 71% 75% 75% 81% 84% 85% 88% 88% 91% 100% 100% 95% 92% 78% 70% 63% 57% 52% 50% 48% 49% 53% 57% 64% 72% 75% 78% 81% 85% 84% 89% 88% 73% 58% 58% 70% 78% 88% 79% 82% 92% 92% 73% 79% 95% 96% 71% 85% 92% 92% 68% 73%
POP 12HR 0% -- -- -- -- -- -- -- -- -- -- -- 0% -- -- -- -- -- -- -- -- -- -- -- 0% -- -- -- -- -- -- -- 1% -- -- -- 4% -- 56% -- 68% -- 30% -- 26% -- 20% -- 38% -- 53% -- 36%
RAIN/SNOW (liq.equ) 0.00in -- -- -- -- -- 0.00in -- -- -- -- -- 0.00in -- -- -- -- -- 0.00in -- -- -- -- -- 0.00in -- -- -- -- -- 0.00in -- 0.00in -- 0.00in -- 0.00in -- -- -- -- -- -- -- -- -- -- -- -- -- -- -- --
SNOWFALL 0in -- -- -- -- -- 0in -- -- -- -- -- 0in -- -- -- -- -- 0in -- -- -- -- -- 0in -- -- -- -- -- 0in -- 0in -- 0in -- 0in -- -- -- -- -- -- -- -- -- -- -- -- -- -- -- --
WIND SPEED(MPH) 6 6 6 6 6 6 6 6 6 6 6 6 6 7 7 7 7 7 7 7 7 7 7 6 6 6 6 6 6 6 6 6 6 7 7 6 6 6 5 5 5 2 2 5 5 5 6 8 7 6 7 9 7
WIND DIR N N N N N N N N N N N N N N NE NE NE NE N N N N N N N NE NE NE NE NE NE NE E E E E E E E E NE N N W W SW SW W W SW W W W
HeatIndex 49 47 40 39 37 35 34 33 32 31 28 27 28 30 35 40 47 49 52 52 52 52 49 47 40 37 34 33 32 31 31 29 29 38 49 49 41 38 38 49 47 42 40 50 49 40 38 52 47 39 36 52 47
Rain -- -- -- -- -- -- -- -- -- -- -- -- -- -- -- -- -- -- -- -- -- -- -- -- -- -- -- -- -- -- -- -- -- -- -- -- -- Likely Likely Likely Chance Slight Chance Chance Slight Chance Slight Chance Slight Chance Chance Chance Chance Slight Chance Chance Chance Slight Chance
WIND CHILL -- -- 39° 39° 36° 36° 34° 34° 31° 31° 29° 27° 29° 30° 35° 41° -- -- -- -- -- -- -- -- 39° 36° 34° 34° 31° 31° 31° 29° 29° 39° -- -- 42° 37° 37° -- -- -- -- -- -- 40° 37° -- -- 39° 36° -- --
SPRAY COND
DRY COND
LIVESTOCK COLDSTRESS
LIVESTOCK HEATSTRESS 50.78 48.88 45.17 45.17 41.96 41.65 39.72 39.37 37.50 37.13 34.00 32.00 34.68 37.00 42.27 47.28 49.40 51.32 53.80 53.87 53.94 53.91 51.53 49.79 46.13 42.90 40.86 40.52 38.38 37.88 38.01 35.50 35.64 45.35 51.26 51.26 47.28 43.15 41.24 50.13 48.17 43.70 41.78 51.31 50.13 43.43 41.39 53.08 47.97 43.70 41.78 53.20 48.75

Click on individual weather variable above in left-hand column (ie., TEMP, RH, QPF 12HR) to view state forecast maps






NWS 48 Hr. Forecast Maps,

Regional Hourly Observations For CLARK County, Kentucky
Issued at 200 PM EDT TUE OCT 23 2018
NORTHEAST KENTUCKY
  
CITY           SKY/WX    TMP DP  RH WIND       PRES   REMARKS
LEXINGTON      NOT AVBL                                               
COVINGTON      FAIR      62  29  28 NW13      30.19F                  
FRANKFORT      FAIR      66  37  34 NW6       30.18F                  


Current NOWCAST not available:
Nowcasts are not issued routinely during fair weather. Only when
precipitation or other significant weather is occuring in this county will these
forecasts be issued. Currently, there is no short term forecast in effect.


Fire Weather Forecast For CLARK County, KY
Provided by the National Weather Service:

Issued at: Tue Oct 23 14:05:01 EDT 2018


                      Today        Tonight      Wed          

CLOUD COVER           Clear        Clear        Clear        
PRECIP TYPE           None         None         None         
CHANCE PRECIP (%)     0            0            0            
TEMP (24H TREND)      62 (-2)      32 (-9)      53           
RH % (24H TREND)      44 (+13)     100 (+15)    46           
20FTWND-VAL/AM(MPH)   W  5                      NE  5        
20FTWND-RDG/PM(MPH)   NW  6        Lgt/Var      NE  6        
PRECIP AMOUNT         0.00         0.00         0.00         
MIXING HGT(FT-AGL/MSL)4207                      3727         
TRANSPORT WND (MPH)   NW 16                     N 13         
VENT RATE (KT-FT)     57795                     42172        
DISPERSION            Good                      Fair         
DSI                   SLGT UNSTBL  SLGT UNSTBL  STBL         
LAL                   1            1            1            
HAINES INDEX          4            4            4            
ADI EARLY             27 FAIR      6 VERY POOR  41 GEN GOOD  
ADI LATE              57 GEN GOOD  6 VERY POOR  45 GEN GOOD  
MAX LVORI EARLY       4            4            7            
MAX LVORI LATE        2            8            3            

REMARKS...ADI IS ATMOSPHERIC DISPERSION INDEX BY LAVDAS.        
LVORI IS LOW VISIBILITY OCCURRENCE RISK INDEX.

.THURSDAY...Partly cloudy. Lows in the mid 30s. Highs in the
lower 50s. North winds around 5 mph. 
.FRIDAY...Cloudy with rain likely. Lows in the lower 40s. Highs
in the upper 40s. East winds around 5 mph. 
.SATURDAY...Mostly cloudy. Lows in the lower 40s. Highs in the
lower 50s. West winds up to 5 mph. 
.SUNDAY...Mostly cloudy with a 50 percent chance of rain. Lows in
the lower 40s. Highs in the lower 50s. West winds 5 to 10 mph. 
.MONDAY...Mostly cloudy with a 50 percent chance of rain. Lows in
the lower 40s. Highs in the lower 50s. West winds 5 to 10 mph. 

SPC's Fire Weather Web Tool (Excellent!), SPC's Fire Weather Outlooks, NWS Fire Weather WEB, Fire Danger Class Map,
Keetch-Byram Drought Index, ROMAN Web, Haines Index ,
WFAS's 10-hr Dead Fuel Moist., WFAS's 100-hr Dead Fuel Moist., Probablity of Ignition, Visual blackness Map, Palmer Drought Index, HPC's Rainfall Forecast Maps


Hazardous Weather Outlook For CLARK County, Kentucky
238 PM EDT Tue Oct 23 2018 /138 PM CDT Tue Oct 23 2018/

 DAY ONE  Tonight.

No hazardous weather is expected at this time.

 DAYS TWO THROUGH SEVEN  Wednesday through Monday.

No hazardous weather is expected at this time.

 SPOTTER INFORMATION STATEMENT  

Spotter activation will not be needed.

Latest CLARK County, Kentucky Watches, Warnings and Advisories.
Additional Drought Info.: UKAWC Drought Page, Kentucky Drought Watch


7-Day Forecast For CLARK County, KY

TODAY
Sunny. Highs in the lower 60s. West winds 5 to 10 mph.

TONIGHT
Clear. Lows in the lower 30s. North winds up to 10 mph.

WEDNESDAY
Sunny. Highs in the lower 50s. Northeast winds 5 to 10 mph.

WEDNESDAY NIGHT
Mostly clear. Lows in the mid 30s. Northeast winds around 5 mph.

THURSDAY
Partly cloudy. Highs in the lower 50s. East winds 5 to 10 mph.

THURSDAY NIGHT
Rain likely. Lows in the lower 40s. Chance of rain 60 percent.

FRIDAY
Rain likely. Highs in the upper 40s. Chance of rain 70 percent.

FRIDAY NIGHT
Cloudy with a 30 percent chance of rain. Lows in the lower 40s.

SATURDAY
Mostly cloudy with a 30 percent chance of rain. Highs in the lower 50s.

SATURDAY NIGHT
Mostly cloudy with a 20 percent chance of rain. Lows in the lower 40s.

SUNDAY
Mostly cloudy with a 40 percent chance of rain. Highs in the lower 50s.

SUNDAY NIGHT
Mostly cloudy with a 50 percent chance of rain. Lows in the lower 40s.

MONDAY
Mostly cloudy with a 40 percent chance of rain. Highs in the lower 50s.

Ag Weather Center, Department of Biosystems & Agricultural Engineering, University of Kentucky